Home > Weather > Halmstad > Past weeks

Flag for Sweden Weather for the Past 2 Weeks in Halmstad, Sweden

Now
34 °F

Chilly.


Feels Like: 34 °F
Forecast: 29 / 34 °F
Wind: 2 mph from North

Location: Halmstad Swedish Air Force Base

Current Time: Feb 13, 2016 at 4:28:06 PM

Latest Report: Feb 13, 2016 at 3:50 PM


Visibility: N/A

Pressure: 29.45 "Hg

Humidity: 60%

Dew point: 21 °F

Location of HalmstadLocation

Historic Weather in Halmstad — Graph

°F

Halmstad Temperature Yesterday

Maximum temperature yesterday: 34 °F (at 12:20 AM)
Minimum temperature yesterday: 25 °F (at 10:50 PM)
Average temperature yesterday: 30 °F

High & Low Weather Summary for the Past Weeks

 TemperatureHumidityPressure
High46 °F (Feb 7, 11:50 AM)100% (Feb 1, 2:50 PM)30.04 "Hg (Feb 1, 2:50 PM)
Low21 °F (Feb 13, 1:20 AM)56% (Feb 13, 3:20 PM)28.85 "Hg (Feb 10, 4:20 AM)
Average38 °F87%29.43 "Hg
* Reported Jan 29 3:20 PM — Feb 13 3:20 PM, Halmstad, Weather by CustomWeather, © 2016

Note: Actual official high and low records may vary slightly from our data, if they occured in-between our weather recording intervals... More about our weather records

Advertising

Halmstad Weather History for the Previous 24 Hours

 ConditionsComfort  
Time TempWeatherWind HumidityBarometerVisibility
3:20 PM
Sat, Feb 13
36 °FChilly.2 mph56%29.45 "HgN/A
2:50 PM36 °FChilly.3 mph60%29.47 "HgN/A
2:20 PM34 °FPassing clouds.1 mph65%29.47 "HgN/A
1:50 PM36 °FPartly sunny.3 mph60%29.47 "HgN/A
1:20 PM34 °FScattered clouds.5 mph70%29.47 "HgN/A
12:50 PM34 °FPartly sunny.5 mph70%29.47 "HgN/A
12:20 PM34 °FScattered clouds.6 mph75%29.47 "HgN/A
11:50 AM34 °FPassing clouds.6 mph75%29.50 "HgN/A
11:20 AM32 °FChilly.5 mph75%29.50 "HgN/A
10:50 AM32 °FPassing clouds.5 mph80%29.50 "HgN/A
10:20 AM28 °FPartly sunny.3 mph86%29.50 "HgN/A
9:50 AM28 °FPartly sunny.5 mph86%29.50 "HgN/A
9:20 AM27 °FPartly sunny.2 mph86%29.50 "HgN/A
8:50 AM23 °FPassing clouds.3 mph93%29.50 "HgN/A
8:20 AM23 °FPassing clouds.3 mph93%29.50 "HgN/A
7:50 AM25 °FPassing clouds.3 mph86%29.50 "HgN/A
7:20 AM23 °FPartly cloudy.5 mph93%29.50 "HgN/A
6:50 AM23 °FPartly cloudy.2 mph93%29.50 "HgN/A
6:20 AM25 °FPassing clouds.6 mph86%29.50 "HgN/A
5:50 AM25 °FPassing clouds.3 mph93%29.50 "HgN/A
5:20 AM25 °FCold.3 mph93%29.50 "HgN/A
4:50 AM23 °FPassing clouds.1 mph93%29.50 "HgN/A
4:20 AM21 °FPartly cloudy.2 mph93%29.50 "HgN/A
3:20 AM21 °FCold.3 mph93%29.53 "HgN/A
2:20 AM23 °FPassing clouds.3 mph93%29.53 "HgN/A
1:50 AM21 °FCold.2 mph93%29.53 "Hg0 mi
1:20 AM21 °FIce fog.1 mph93%29.53 "Hg1 mi
12:50 AM23 °FCold.No wind93%29.53 "HgN/A
12:20 AM25 °FCold.No wind93%29.53 "HgN/A
11:50 PM
Fri, Feb 12
25 °FPassing clouds.3 mph93%29.53 "HgN/A
10:50 PM25 °FCold.3 mph93%29.53 "HgN/A
10:20 PM27 °FPassing clouds.1 mph93%29.53 "HgN/A
9:50 PM27 °FPassing clouds.2 mph93%29.53 "HgN/A
9:20 PM27 °FClear.1 mph93%29.53 "HgN/A
8:50 PM27 °FClear.2 mph93%29.53 "HgN/A
8:20 PM28 °FPassing clouds.2 mph93%29.53 "HgN/A
7:50 PM28 °FClear.3 mph80%29.53 "Hg10 mi
7:20 PM28 °FClear.5 mph80%29.53 "Hg10 mi
6:50 PM28 °FPassing clouds.7 mph80%29.50 "HgN/A
6:20 PM30 °FPassing clouds.3 mph75%29.50 "HgN/A
5:50 PM30 °FPassing clouds.2 mph75%29.50 "HgN/A
5:20 PM30 °FPassing clouds.3 mph75%29.50 "HgN/A
4:50 PM30 °FScattered clouds.7 mph80%29.50 "HgN/A
4:20 PM30 °FPassing clouds.10 mph75%29.50 "HgN/A
Weather by CustomWeather, © 2016

See weather overviewHow to use our weather pages